NOAA NWS Hourly Roundups by Site

Regional Weather Roundup for State College, PA

To Select Another Site Choose from List

Select Site:  

000
ASUS41 KCTP 280310
RWRCTP

REGIONAL WEATHER ROUNDUP
NATIONAL WEATHER SERVICE STATE COLLEGE PA
1100 PM EDT WED MAY 27 2020

Note: "fair" indicates few or no clouds below 12,000 feet with no
significant weather and/or obstructions to visibility.

* = STATION THAT DOES NOT REPORT PRECIPITATION /E.G. RAIN...SNOW...ETC/
    THUNDER OR FOG.

PAZ002>004-007>009-013>016-020>023-029>032-280400-
WESTERN PENNSYLVANIA

CITY           SKY/WX    TMP DP  RH WIND       PRES   REMARKS
ERIE           MOCLDY    75  59  57 SE14      30.03S
MEADVILLE      MOCLDY    71  59  65 VRB3      30.07F
FRANKLIN       MOCLDY    68  60  75 SE9       30.10F
NEW CASTLE     FAIR      72  61  68 E5        30.07S
BEAVER COUNTY  CLOUDY    73  59  61 SE6       30.07
BUTLER         CLOUDY    71  62  73 E8        30.09S
PITTSBURGH INT CLOUDY    74  59  59 SE10      30.06S
PITTSBURGH     CLOUDY    72  61  68 SE8       30.07S
INDIANA*       CLEAR     70  63  78 S13       30.15S
LATROBE        CLOUDY    70  63  78 SE8       30.10R
WASHINGTON CO* MOCLDY    72  62  71 SE7       30.09S
$$

PAZ004>006-010>012-017>019-024>028-033>037-041-042-045-046-049>053-280400-
CENTRAL PENNSYLVANIA

CITY           SKY/WX    TMP DP  RH WIND       PRES   REMARKS
BRADFORD       MOCLDY    65  56  72 S5        30.15S
ST MARYS       CLOUDY    66  61  82 SE3       30.18
DUBOIS         MOCLDY    66  59  78 SE6       30.13S
CLEARFIELD     MOCLDY    68  60  75 CALM      30.15S
JOHNSTOWN      MOCLDY    65  59  81 SE8       30.16S
SOMERSET       FAIR      63  59  88 S7        30.17S
ALTOONA        MOCLDY    66  60  81 CALM      30.17R
STATE COLLEGE  MOCLDY    70  62  76 S3        30.16S
REEDSVILLE     FAIR      72  64  78 VRB5      30.15
WELLSBORO      FAIR      66  59  77 S10       30.17S
WILLIAMSPORT   MOCLDY    68  62  81 CALM      30.13S
SELINSGROVE    MOCLDY    68  64  87 CALM      30.16R
FT INDIANTOWN  MOCLDY    67  64  93 CALM      30.18R
CAPITAL CITY   MOCLDY    73  64  73 SE9       30.16R
HARRISBURG     MOCLDY    70  65  84 SE6       30.16R
YORK           PTCLDY    68  62  81 SE5       30.16R
$$

PAZ038>040-043-044-047-048-054-055-060>062-067>071-280400-
EASTERN PENNSYLVANIA

CITY           SKY/WX    TMP DP  RH WIND       PRES   REMARKS
TOWANDA        CLEAR     72  63  73 SW3       30.16S
SCRANTON       MOCLDY    73  60  63 VRB5      30.17S
MOUNT POCONO   MOCLDY    66  60  81 SE7       30.23S
HAZLETON       FAIR      68  59  73 CALM      30.24S
LEHIGHTON      FAIR      68  63  83 CALM      30.20R
ALLENTOWN      MOCLDY    72  62  71 S6        30.18R
QN CITY/ALNTWN FAIR      72  64  78 S5        30.20S
QUAKERTOWN*    CLEAR     68  64  88 CALM      30.20S
PERKASIE*      MOCLDY    68  68 100 CALM      30.21S
DOYLESTOWN     MOCLDY    69  62  78 SE3       30.20R
READING        MOCLDY    71  65  81 S9        30.17R
LANCASTER      PTCLDY    68  64  87 SE7       30.17R
COATESVILLE    MOCLDY    66  66 100 SE6       30.21S
WEST CHESTER   MOCLDY    70  63  78 CALM      30.20S
POTTSTOWN      MOCLDY    68  63  84 CALM      30.21R
BLUE BELL      MOCLDY    69  64  84 SE5       30.20S
NORTH PHILA    MOCLDY    72  65  78 S8        30.21R
PHILADELPHIA   PTCLDY    69  63  81 SE3       30.20R
$$



 

View Past Reports for State College, PA.

Products Courtesy of NOAA-NWS
NWS Information Parsing Script by Ken True at Saratoga Weather - Script by SE Lincoln Weather.